GFSSW_925_thetae_333.txt.gz
Theta_e
306 307 307 307 307 308 307 308 309 310 308 304 307 305 303 304 303 304 298 301 304 304 303 304 305 305 305 305 307 310 321 328 325 327 312 301 300 297 297 296 294 294 294 292 291
304 304 305 306 305 307 308 308 307 309 309 305 306 303 301 299 301 294 296 301 302 302 301 302 303 303 303 304 305 318 328 324 305 302 302 298 299 298 298 297 295 293 292 291 290
302 303 304 304 306 307 307 306 305 307 308 305 305 303 303 303 300 293 295 297 299 300 301 302 302 304 305 302 301 301 311 303 301 305 301 299 298 298 298 298 296 295 292 291 290
301 302 303 304 305 306 306 305 306 307 306 304 304 303 305 304 302 293 295 297 299 301 302 303 303 306 304 304 299 302 297 298 297 298 306 307 300 298 297 296 294 292 291 290 289
301 302 302 303 304 305 306 306 307 306 305 303 303 303 301 295 292 293 295 297 299 300 299 300 302 304 304 301 300 299 296 296 296 296 295 296 297 298 294 292 291 291 290 290 289
301 300 299 299 302 304 302 304 305 306 303 303 303 299 299 297 292 293 295 296 297 298 297 297 299 299 297 295 299 295 294 294 295 296 296 296 295 296 293 291 291 290 289 288 288
300 299 298 296 298 298 297 295 295 296 300 303 298 298 292 291 292 293 295 294 295 296 295 295 298 299 296 295 293 294 295 294 291 292 296 295 296 296 293 292 291 290 289 288 288
299 298 298 295 296 295 294 293 294 295 296 297 297 296 290 291 292 294 294 294 294 295 295 296 298 294 295 293 295 297 297 301 293 292 292 295 301 294 291 291 290 289 288 288 288
298 297 297 295 295 294 293 293 294 295 296 295 295 293 291 292 292 291 292 292 294 294 294 296 294 292 295 297 298 295 301 299 298 290 291 294 297 293 291 291 290 288 288 288 287
298 296 297 296 295 295 294 293 294 294 294 294 293 293 289 289 290 290 292 292 292 293 294 291 291 293 291 295 295 298 299 296 297 291 291 292 291 292 291 290 289 287 287 287 287
297 293 296 297 295 296 295 294 292 291 289 287 288 289 288 290 290 290 290 291 291 289 291 289 293 295 293 290 290 293 296 294 291 290 290 290 290 290 291 289 288 286 286 286 286
294 291 294 297 296 296 296 294 292 290 288 288 288 288 289 288 290 289 290 291 290 290 289 290 290 287 288 289 290 292 292 292 290 289 289 288 289 289 290 291 291 288 287 286 285
291 292 294 297 296 294 294 292 290 290 288 289 288 288 287 288 287 287 288 288 288 289 287 290 288 287 290 289 291 289 291 290 291 289 289 287 288 288 288 289 289 288 288 286 286
290 292 295 297 294 292 292 293 294 292 289 293 290 288 289 288 288 288 287 288 286 288 286 286 287 289 289 289 289 292 288 289 290 290 290 287 291 289 287 288 288 289 287 286 285
290 293 296 297 295 291 292 293 295 293 291 290 289 289 288 289 288 288 287 287 288 287 288 288 287 288 289 288 288 290 288 289 290 289 289 289 289 289 287 289 289 289 288 286 286
290 294 295 296 295 292 292 295 293 294 290 288 288 289 289 287 288 288 288 286 286 287 286 286 285 286 287 286 287 288 290 290 287 288 289 288 289 291 289 289 289 289 289 287 285
290 291 293 294 292 291 292 292 294 293 287 288 288 289 288 288 288 288 288 288 287 287 289 287 286 285 286 287 288 290 289 290 290 288 292 288 288 292 290 288 289 288 289 288 286
291 291 291 292 292 292 292 292 289 285 284 288 288 288 289 287 287 288 288 285 285 286 284 287 289 285 285 286 287 289 286 290 287 291 291 288 291 294 288 289 287 288 287 287 286
291 292 292 291 293 294 291 288 291 287 287 288 288 287 282 286 286 287 288 282 282 282 287 284 288 284 285 285 285 286 289 286 283 280 286 290 290 292 290 289 287 288 286 285 286
289 291 290 291 294 292 289 293 287 289 288 288 289 287 280 279 286 286 286 281 286 285 280 286 286 286 285 284 284 284 285 288 285 285 285 288 287 292 292 290 288 288 287 285 284
290 289 289 292 291 288 288 283 284 288 288 288 288 282 285 283 281 279 284 285 283 286 284 278 285 285 284 283 284 284 284 284 285 285 288 287 292 285 288 290 288 286 287 285 284
289 289 289 291 287 273 281 281 288 287 287 288 286 287 286 283 280 279 283 284 283 283 287 283 283 283 285 283 282 281 283 284 287 285 282 286 290 289 288 288 287 287 288 284 283
286 285 288 290 288 282 279 284 287 286 287 286 287 288 288 287 286 284 285 285 283 283 282 282 282 281 287 283 281 279 283 285 282 283 284 286 291 286 286 287 286 288 287 286 284
285 287 284 283 282 286 282 284 286 286 286 285 284 284 286 286 286 281 288 286 284 286 289 285 274 283 289 286 280 280 278 284 281 281 285 288 290 290 288 287 286 285 287 285 284
282 284 280 287 286 280 283 285 287 287 282 286 285 282 283 281 281 283 284 285 285 287 283 281 280 274 276 281 279 279 278 282 283 285 287 291 289 285 286 285 287 285 286 287 286
283 284 276 273 278 282 282 285 288 287 284 284 281 285 282 282 285 284 281 283 284 280 279 274 278 273 276 282 283 282 279 280 285 285 284 286 286 288 287 282 284 285 285 286 286
283 283 284 283 276 283 285 286 288 286 285 285 284 285 284 284 280 279 281 282 282 282 281 276 275 274 279 281 281 283 279 283 282 277 286 286 289 287 283 286 285 285 284 284 285

GFSSW_925_thetae_336.txt.gz
Theta_e
306 305 306 307 307 307 308 309 308 310 309 303 307 305 303 304 303 304 299 301 304 302 303 304 305 306 307 311 312 315 330 329 329 328 321 305 308 299 298 300 297 297 297 295 293
304 304 305 305 306 308 308 308 308 308 310 305 306 303 301 300 300 296 296 300 300 300 302 304 308 307 309 309 311 323 332 330 312 313 309 303 304 305 304 299 297 296 293 292 292
302 303 304 304 305 307 307 305 304 306 309 306 305 303 303 302 303 296 295 297 299 300 301 301 303 307 308 308 307 309 321 309 307 306 304 303 302 300 303 303 301 299 295 293 292
301 302 303 304 305 306 306 307 307 307 306 305 305 304 304 304 306 294 295 297 299 300 301 303 306 309 309 307 303 309 301 302 300 302 305 304 300 300 301 299 297 297 294 293 292
301 301 302 302 304 304 305 306 306 305 304 303 303 303 301 301 295 294 295 297 299 299 299 304 306 309 309 304 304 304 300 300 299 299 300 301 302 301 296 295 294 293 293 292 291
300 300 298 300 303 303 302 302 302 304 303 304 303 301 300 302 293 293 295 296 297 298 298 301 304 303 303 300 304 299 299 298 299 299 299 300 299 299 297 295 294 293 293 292 291
299 299 297 297 298 297 297 295 295 299 303 303 299 299 296 294 292 293 295 294 295 297 299 297 299 304 300 299 297 298 300 299 297 297 299 299 301 300 298 295 294 294 293 292 291
298 298 297 296 296 295 294 294 295 297 299 297 297 296 294 292 292 293 294 294 294 295 296 297 298 299 300 298 300 302 303 307 296 296 296 298 308 298 296 295 295 294 293 292 291
299 298 297 295 295 294 294 294 294 295 296 296 295 296 294 292 292 291 292 293 294 294 295 296 297 298 300 304 304 303 305 305 302 293 295 298 305 297 296 296 296 295 294 293 292
299 296 297 296 295 295 293 293 294 294 294 294 293 297 292 292 290 290 292 292 293 295 299 299 300 302 301 303 301 303 303 301 303 296 294 297 299 297 296 296 297 296 294 293 292
297 294 297 296 295 295 294 294 296 297 291 290 290 291 290 290 290 291 290 292 294 295 298 294 301 300 298 295 296 300 301 300 297 293 294 297 297 297 296 296 297 296 294 294 293
294 292 295 297 295 296 296 297 293 293 291 289 289 289 289 288 293 292 290 294 295 295 293 297 295 290 291 292 295 297 298 298 294 292 293 295 295 297 296 296 297 297 295 294 293
292 292 294 297 295 295 294 292 290 290 295 291 289 290 289 289 290 291 290 291 293 293 293 296 291 289 291 292 295 294 296 295 295 293 292 293 298 296 294 295 295 296 296 295 294
291 293 295 297 294 293 293 292 292 292 307 294 292 290 290 290 291 288 288 290 290 291 290 291 289 291 292 292 292 294 290 291 293 295 297 293 298 299 295 294 294 295 296 295 294
290 293 296 296 295 292 293 294 295 295 309 291 291 289 289 292 290 290 287 291 291 290 291 290 290 291 292 290 290 292 290 292 292 294 293 294 296 301 293 298 297 295 295 295 294
290 294 296 296 294 292 293 295 293 309 304 292 290 290 291 290 289 290 290 289 289 290 290 288 287 288 289 288 289 291 293 293 292 294 300 293 295 300 299 300 297 294 295 295 294
290 294 294 294 294 292 294 293 308 308 290 294 292 290 290 289 290 290 290 292 295 299 294 289 288 287 288 291 290 292 294 300 302 303 302 291 293 300 300 298 295 295 294 295 294
291 291 291 292 291 291 291 302 300 294 293 288 290 289 292 289 289 289 290 292 289 292 293 296 296 288 287 289 293 292 295 301 300 299 297 291 297 302 296 293 293 292 292 293 293
291 292 291 292 292 292 298 303 305 296 292 290 289 291 291 288 289 289 291 293 292 290 302 295 291 286 287 287 288 292 295 292 295 287 295 297 299 300 295 295 294 293 292 292 292
290 291 289 292 294 292 301 302 294 291 290 290 298 291 297 290 291 290 290 289 291 288 286 291 295 287 286 286 287 290 290 295 294 298 299 297 296 298 298 297 296 295 294 292 291
289 295 289 292 291 298 303 297 289 290 288 291 292 290 291 293 292 293 295 288 288 288 287 290 295 288 286 288 290 289 291 290 292 295 299 297 299 301 296 295 295 294 294 292 292
290 300 289 290 298 283 295 287 289 289 288 289 290 289 293 289 290 290 295 290 287 289 291 289 295 293 291 285 284 287 291 293 297 295 291 293 297 295 294 294 293 293 293 292 291
295 292 288 289 300 295 286 287 288 288 289 289 290 290 289 290 295 289 287 286 286 288 291 290 294 297 294 289 285 287 287 289 288 290 293 298 297 290 291 293 292 292 292 292 290
292 296 291 290 286 293 290 291 290 287 288 287 288 287 290 290 287 289 290 287 285 287 289 289 288 296 301 298 291 288 286 287 291 295 294 293 295 295 295 294 294 291 291 291 291
289 295 288 296 295 291 290 290 289 289 285 287 287 288 291 287 287 289 288 287 286 288 285 288 292 282 286 286 285 289 286 287 288 293 295 296 294 296 295 293 291 290 290 290 291
291 291 282 282 284 289 288 289 292 288 288 288 288 289 286 289 294 291 288 288 291 285 286 280 290 280 286 284 285 286 285 286 288 290 290 291 291 293 294 292 290 291 290 289 289
283 284 293 286 286 293 294 292 290 289 287 288 289 288 287 287 286 285 286 287 288 289 288 285 284 287 294 284 285 291 285 287 287 288 291 292 293 293 291 289 290 290 289 289 289

GFSSW_925_thetae_339.txt.gz
Theta_e
305 306 306 307 307 308 309 309 310 309 311 307 307 305 303 304 304 304 302 302 304 301 303 306 308 309 310 315 317 321 331 333 331 329 325 309 311 302 300 303 301 299 301 298 295
304 304 305 306 306 308 308 308 307 307 309 308 306 303 301 302 302 299 296 298 299 300 305 307 311 309 311 314 317 325 332 331 317 317 319 312 314 309 310 304 300 299 295 295 295
302 303 304 304 306 307 307 306 303 305 309 308 306 303 303 302 306 299 295 297 299 301 302 304 307 310 310 312 312 317 327 316 313 312 309 308 307 307 316 314 310 302 297 295 295
302 302 303 304 305 306 306 307 307 307 307 307 305 303 304 306 309 296 296 297 299 300 303 306 309 311 311 310 308 313 306 308 305 305 309 308 305 305 307 304 301 301 298 295 295
301 302 301 302 304 305 304 306 305 305 305 305 304 304 303 306 299 294 296 297 298 300 303 307 309 312 312 308 308 308 305 304 303 303 305 305 306 306 301 298 298 296 295 295 294
301 301 299 300 302 303 303 301 300 303 303 304 303 301 304 305 294 293 295 296 297 301 303 305 308 309 307 305 308 304 304 303 302 302 302 304 304 303 303 297 296 296 295 294 294
299 299 297 298 298 297 297 296 297 301 303 303 300 299 301 298 293 293 294 295 295 298 303 301 304 307 306 304 302 303 305 303 301 301 302 301 305 304 302 299 299 298 297 295 294
299 298 297 296 296 295 295 295 296 299 299 297 298 299 298 293 294 293 294 296 296 296 298 298 302 303 304 302 304 306 306 308 300 300 299 301 308 303 300 299 299 298 297 295 294
300 297 297 296 295 295 294 295 295 296 296 296 298 299 297 293 294 292 293 296 296 297 297 298 301 303 303 306 306 306 306 307 304 297 299 301 307 301 300 299 300 299 298 296 295
300 296 297 296 296 295 294 293 294 294 294 295 295 298 295 295 293 292 293 293 297 300 302 303 304 304 304 305 304 305 304 304 304 299 298 301 302 303 300 300 300 301 299 298 296
298 296 297 296 296 295 294 297 299 299 293 293 293 294 293 292 292 293 292 295 298 300 303 300 304 304 302 299 300 302 302 302 302 296 297 300 301 301 302 299 300 301 300 299 297
297 293 296 297 296 295 295 299 297 296 294 291 291 292 291 290 295 294 293 297 299 299 298 300 301 295 295 296 299 300 301 302 299 295 295 299 298 300 301 300 300 300 301 299 298
294 293 294 297 295 295 296 296 291 293 298 292 291 292 292 292 293 293 294 295 298 297 298 301 294 292 294 296 298 298 299 299 297 296 296 296 301 302 300 299 300 299 300 300 298
293 293 294 297 294 294 297 292 291 293 310 297 294 292 292 292 293 290 290 293 294 296 296 294 291 293 295 295 295 298 293 294 295 298 300 297 299 302 302 300 298 298 298 299 299
290 293 295 296 296 295 295 292 293 297 309 295 293 290 291 294 293 292 290 294 295 293 295 293 292 293 295 292 292 295 293 295 295 297 297 298 298 302 300 301 301 300 298 298 299
290 295 297 296 293 293 293 295 296 311 310 295 292 292 293 292 292 292 293 292 292 293 292 290 289 291 292 290 292 293 295 295 296 297 303 298 297 301 302 301 300 299 298 298 298
290 294 295 295 297 292 294 296 309 308 293 298 295 292 293 292 292 292 293 294 298 302 297 291 290 289 290 293 293 294 297 304 306 307 307 295 296 301 302 299 298 298 297 297 297
291 292 293 293 292 293 294 306 304 305 300 291 292 292 294 292 292 292 293 295 293 295 298 299 298 291 289 292 296 295 298 306 304 302 301 294 298 304 299 297 297 296 296 295 296
291 291 292 292 291 292 300 313 318 307 296 293 292 295 296 291 292 293 294 297 298 294 307 300 294 288 288 289 292 295 296 295 301 292 297 299 301 302 298 298 298 296 295 296 295
292 294 293 292 292 295 302 307 302 293 292 293 303 296 305 296 293 293 295 297 294 291 291 296 296 289 288 289 290 292 293 296 298 303 303 300 300 300 300 299 298 297 297 296 295
292 297 291 292 292 300 307 310 294 292 291 293 296 296 299 296 297 298 302 291 292 290 291 297 301 290 288 290 293 290 294 294 296 298 302 300 301 307 300 298 298 296 296 296 295
294 302 290 290 302 298 304 296 291 292 290 291 293 294 296 294 296 298 301 294 291 291 292 295 304 295 295 288 287 290 295 296 299 300 295 297 299 298 298 297 296 295 294 295 294
299 296 289 291 304 301 291 291 291 291 291 292 293 292 292 293 300 294 292 288 289 292 294 294 301 301 296 291 288 289 290 293 293 294 299 300 299 294 294 295 295 294 293 294 293
297 300 295 295 292 303 296 295 294 289 291 290 292 291 292 292 290 292 291 289 287 289 289 292 297 302 306 302 295 292 291 291 295 297 296 297 297 297 297 297 297 295 294 293 293
295 301 295 298 298 297 296 296 293 291 288 289 289 293 297 293 291 293 292 289 288 289 288 291 295 289 291 291 291 294 291 291 292 295 298 297 298 299 299 296 294 294 292 292 292
297 295 287 291 291 296 296 295 295 292 290 291 292 292 293 295 298 294 292 291 293 289 289 284 295 285 291 289 288 289 290 290 291 292 293 295 295 296 296 294 293 293 292 291 291
290 287 297 292 293 297 299 297 294 293 291 292 291 292 291 291 290 291 290 292 292 291 290 288 289 291 296 288 289 293 288 290 290 292 293 294 296 296 295 292 291 291 291 290 290

GFSSW_925_thetae_342.txt.gz
Theta_e
305 306 306 307 307 308 310 309 309 310 307 308 303 306 304 304 304 305 302 301 303 300 303 307 309 310 310 316 318 322 331 333 328 330 317 309 310 302 302 304 302 300 300 298 296
304 304 305 306 306 308 308 309 307 308 308 310 304 305 303 303 303 300 297 296 298 300 305 306 311 309 312 315 318 323 331 325 317 315 315 312 314 305 306 303 301 298 296 296 296
303 303 304 305 306 307 307 308 307 305 307 309 305 305 303 302 308 299 296 297 299 300 303 305 307 310 311 312 313 318 323 315 312 311 310 309 309 310 315 315 308 303 296 295 296
302 302 303 304 305 306 305 307 307 307 307 308 305 304 303 306 310 296 296 298 299 301 303 307 310 312 312 312 310 314 308 309 306 305 311 310 307 307 303 300 301 303 297 296 296
301 302 302 303 304 305 304 303 305 305 305 305 305 304 304 305 300 295 296 297 299 301 304 307 310 313 313 309 309 309 306 305 304 304 305 306 308 306 302 298 297 298 297 296 296
301 301 300 300 302 303 303 303 301 301 303 303 304 303 304 306 295 294 295 297 297 302 304 306 308 310 308 306 307 305 305 304 304 303 302 304 306 304 301 297 296 296 295 294 295
301 300 298 297 298 297 298 297 297 301 303 304 302 300 302 298 295 294 295 296 297 299 304 302 304 308 308 304 304 304 304 303 301 302 301 300 304 303 299 298 298 297 296 296 295
301 299 298 297 296 296 295 296 298 301 301 299 298 298 298 294 294 294 296 297 297 298 300 301 304 304 305 302 304 305 306 307 300 300 299 301 306 301 299 299 299 298 297 295 294
301 299 298 296 296 295 295 295 295 296 296 297 299 299 297 294 295 293 294 296 298 299 299 301 303 303 303 305 305 306 305 307 301 298 299 301 305 302 299 298 299 297 296 295 294
301 298 297 296 295 295 294 294 294 296 295 295 296 298 295 295 293 293 294 295 298 301 303 304 304 303 304 304 303 306 304 303 303 297 299 299 299 300 299 298 298 298 297 295 294
300 297 297 296 296 295 294 297 301 300 293 294 294 295 294 293 294 294 293 295 299 302 303 301 302 303 300 299 300 301 302 302 300 295 295 297 298 298 299 298 297 298 298 296 295
298 296 296 296 296 295 295 300 297 297 293 292 292 292 292 291 295 294 294 297 299 299 299 299 301 295 296 297 300 301 301 301 297 295 295 296 295 296 297 298 297 297 297 297 295
297 295 294 297 296 295 297 298 293 294 298 293 292 293 293 293 294 294 293 295 298 298 298 299 293 293 295 297 298 297 298 297 296 296 296 295 296 301 299 299 299 297 297 298 296
295 293 294 297 294 296 297 294 292 295 310 298 294 293 293 293 293 291 291 293 295 296 294 293 291 293 295 294 294 298 293 294 295 296 297 296 294 300 298 297 297 298 295 296 296
292 293 295 296 297 296 296 292 293 299 305 296 293 291 292 294 293 292 291 294 295 292 294 292 292 293 295 292 291 294 293 295 295 296 296 296 294 299 300 297 297 297 297 296 295
291 295 297 297 294 295 293 294 298 308 300 293 292 293 293 293 292 292 293 292 292 292 290 289 289 290 291 291 292 292 295 295 296 295 298 296 295 297 299 300 300 298 297 297 297
291 295 296 296 298 293 294 298 305 306 295 296 294 291 293 292 291 292 293 292 296 297 295 291 290 289 290 292 293 294 296 304 302 301 305 295 294 295 300 297 297 295 294 294 293
292 294 294 294 294 293 296 303 303 305 299 291 292 292 294 292 292 292 293 294 293 295 297 296 295 290 289 291 295 294 296 304 300 304 299 295 295 298 298 297 296 295 296 295 295
291 291 293 292 292 294 302 303 305 307 297 293 292 295 295 291 292 292 293 296 297 292 303 298 292 288 288 289 290 294 294 295 293 290 294 296 298 298 296 297 296 295 295 295 294
294 295 294 292 292 297 301 303 301 293 293 293 300 297 298 293 293 292 293 296 294 292 291 296 291 289 287 288 290 292 291 294 295 296 297 300 298 296 295 295 295 295 294 294 294
293 298 292 292 293 299 301 302 295 292 292 293 296 293 302 294 295 295 299 293 291 290 292 294 297 290 288 288 291 289 292 292 295 297 300 298 298 299 296 295 294 293 294 293 294
295 300 291 292 300 298 302 296 293 292 290 291 292 296 297 295 296 298 299 295 291 290 292 294 295 292 292 287 287 289 293 294 296 295 293 296 294 297 296 295 293 292 293 293 293
300 297 289 292 300 299 291 291 292 291 291 291 292 293 292 294 296 296 293 288 290 292 291 290 296 292 295 290 287 286 290 293 292 293 293 294 295 294 293 293 293 292 291 291 292
298 297 294 294 294 300 295 295 292 291 292 292 292 292 292 291 291 290 291 289 288 290 290 293 293 297 300 300 290 287 288 291 288 289 294 296 295 293 292 293 293 291 291 291 290
295 300 295 294 296 295 296 296 295 291 289 290 290 292 292 289 290 291 291 288 288 290 288 290 289 286 289 291 291 289 285 289 289 291 291 294 294 294 294 294 294 293 291 291 290
297 296 289 296 294 295 296 296 295 292 289 290 291 292 294 290 293 292 290 290 290 288 286 283 289 282 286 290 290 287 288 287 290 291 291 292 293 294 290 289 291 290 289 289 288
293 291 296 296 296 296 296 295 295 293 291 293 290 292 293 293 290 289 290 291 290 289 288 284 284 286 289 288 289 288 287 289 289 286 290 290 292 291 290 290 289 288 287 288 288

GFSSW_925_thetae_345.txt.gz
Theta_e
305 305 306 307 307 308 309 309 310 309 309 309 305 306 305 304 304 305 301 299 301 300 304 307 309 309 309 309 316 317 325 329 323 323 313 307 307 301 300 301 300 297 298 297 297
304 304 305 306 306 307 308 308 308 304 308 309 306 305 303 303 302 300 297 297 298 300 304 304 307 307 306 313 314 318 325 321 312 311 309 308 309 302 304 301 300 297 296 296 296
303 303 304 304 305 306 306 307 308 307 306 309 307 305 303 303 308 297 296 297 299 300 302 303 305 307 309 310 310 311 317 311 308 310 308 307 309 305 308 309 303 300 296 295 296
302 302 303 304 304 305 306 305 306 307 306 308 306 305 303 306 309 296 296 297 299 301 302 305 306 309 309 309 308 309 305 306 305 305 309 308 306 303 302 301 301 300 295 295 295
302 302 302 302 303 305 305 304 302 303 304 305 305 304 303 304 298 296 296 298 299 302 303 304 307 309 309 306 307 305 304 303 302 302 302 305 305 304 299 295 297 296 296 295 295
302 301 301 300 301 301 301 303 300 300 302 304 304 303 303 305 295 295 296 297 299 301 303 303 304 305 304 304 305 304 302 302 302 301 300 303 304 304 297 294 294 296 294 293 293
302 301 299 298 298 297 298 298 299 301 303 304 304 300 298 298 295 295 296 297 297 300 302 302 303 305 303 302 302 301 301 300 299 300 299 299 302 302 296 294 295 294 293 293 294
301 301 298 297 296 296 296 297 299 301 302 301 299 298 297 294 295 295 297 297 298 299 301 302 303 302 302 300 302 303 303 303 299 298 299 300 301 300 295 295 295 294 293 293 293
301 301 299 296 296 295 295 295 295 295 296 296 298 298 297 294 295 294 294 296 298 299 300 302 302 300 302 301 301 302 301 304 300 297 298 300 301 300 296 296 296 294 294 292 291
301 300 298 296 296 295 294 294 295 296 295 295 296 296 294 294 293 294 294 295 297 300 301 302 299 298 298 298 298 301 301 302 302 297 297 298 297 297 297 295 295 293 292 291 291
300 299 297 296 296 295 294 296 298 298 293 294 293 294 294 293 293 294 294 295 297 300 299 299 297 299 298 298 299 300 300 300 296 295 295 295 294 294 294 295 294 294 293 292 291
299 297 296 296 296 295 295 298 297 296 292 292 292 292 291 292 294 293 294 296 298 297 297 296 298 293 295 297 299 299 299 298 295 295 294 293 292 292 293 295 294 294 294 293 292
298 296 293 296 296 295 297 297 293 295 294 292 292 293 292 292 293 293 292 294 296 296 295 295 292 292 295 295 296 293 296 295 296 294 294 293 293 299 297 296 294 294 294 294 292
297 293 293 297 295 297 296 295 292 296 296 296 292 292 292 292 292 291 291 293 293 293 291 290 291 293 294 292 293 296 292 293 295 293 295 293 292 294 297 296 295 295 293 293 292
296 292 294 297 296 295 296 293 292 299 292 294 291 291 291 293 292 291 291 293 292 291 293 291 291 292 294 292 291 294 292 294 294 294 293 294 292 293 294 296 296 296 294 291 291
293 294 297 298 295 295 294 293 298 294 292 290 291 291 291 292 291 291 292 291 291 291 288 288 289 289 290 290 292 291 293 294 293 293 292 295 292 292 294 296 296 294 293 292 291
293 294 297 296 297 293 293 298 294 291 292 291 290 290 292 291 291 291 291 290 291 291 292 290 289 288 289 291 291 293 296 298 296 294 294 294 292 292 297 295 295 295 294 293 293
294 294 295 296 295 293 297 294 288 291 292 291 291 291 292 290 291 291 291 291 291 295 291 292 291 288 288 290 291 292 294 296 292 303 298 292 293 295 296 294 294 293 293 294 293
293 292 292 293 293 295 293 287 292 294 296 291 291 291 289 290 290 290 290 290 291 291 295 292 292 287 287 288 289 292 291 294 289 288 289 292 294 295 296 295 293 293 293 293 293
293 293 294 292 293 297 291 294 292 294 291 291 294 291 285 286 290 290 290 291 295 291 289 295 289 288 287 288 289 291 291 291 291 289 290 298 293 293 294 294 293 293 292 292 293
293 294 292 291 294 290 288 288 294 291 292 291 292 289 295 290 289 288 293 292 289 290 292 288 290 288 287 286 289 288 290 291 292 295 296 294 295 292 293 292 292 291 291 291 291
293 295 291 292 293 285 288 292 293 291 289 291 292 293 296 291 291 289 293 294 289 289 291 291 289 286 288 286 286 287 291 292 293 292 291 293 292 294 293 291 290 290 290 290 290
295 293 289 292 290 291 287 290 291 290 290 289 290 292 292 293 289 294 293 288 289 290 289 290 288 286 292 289 286 284 289 293 291 291 289 290 291 293 292 291 290 289 289 289 289
294 294 291 289 287 291 287 290 291 290 291 290 289 289 290 291 291 288 291 288 288 290 292 293 286 290 295 294 286 285 287 291 288 287 292 294 294 291 290 290 289 289 288 288 288
294 296 292 291 290 289 292 294 293 292 288 290 289 287 288 286 287 288 288 287 287 290 288 288 289 285 286 291 288 286 285 289 290 290 292 294 295 293 290 289 289 288 288 289 289
293 295 288 292 290 293 294 294 294 291 289 289 287 291 291 288 291 288 286 287 288 285 284 281 284 281 284 289 290 288 287 286 291 292 291 292 292 290 286 289 288 287 287 287 287
292 291 294 294 294 294 293 293 294 292 290 290 289 290 292 292 288 286 288 288 288 287 286 285 282 285 286 288 288 289 286 288 288 284 290 290 291 290 288 288 287 286 286 287 286